Tracking 19219 objects as of 20-Jul-2018
HD Live streaming from Space Station
objects crossing your sky now

FENGYUN 1C DEB

Track FENGYUN 1C DEB now!
10-day predictions


NORAD ID: 37921
Int'l Code: 1999-025ENW
Perigee: 861.6 km
Apogee: 983.4 km
Inclination: 99.3 °
Period: 103.3 minutes
Semi major axis: 7293 km
RCS: 0.0041 m2 (small)
Launch date: May 10, 1999
Source: People's Republic of China (PRC)
Launch site: Taiyaun Space Center, China (TSC)

Note: This is SATELLITE DEBRIS
aabbcc
Your satellite tracking list
Your tracking list is empty




NASA's NSSDC Master Catalog

Two Line Element Set (TLE):
1 37921U 99025ENW 18199.81834506  .00000107  00000-0  11308-3 0  9994
2 37921  99.3388 216.0796 0083482 253.4080 105.7899 13.93796781450116
Source of the keplerian elements: AFSPC